COSMOS 729

导读 | 星芒AI

COSMOS 729 是苏联于1975年4月18日发射的一颗军用侦察卫星,主要用于电子情报和光学成像任务。该卫星属于“宇宙”(COSMOS)系列,是苏联航天计划中的重要组成部分。其具体任务细节未公开,但推测涉及对地面目标的监视与数据收集。COSMOS 729 在轨运行一段时间后失联,最终再入大气层销毁。该卫星反映了冷战时期苏联在空间侦察领域的技术发展与战略部署。

基本信息
目录编号:
7768
目录名称:
COSMOS 729
国际标识:
1975-034A
轨道中心:
EARTH
卫星名称:
COSMOS 729
卫星全名:
--
卫星状态:
在轨 (已飞行18455 天)
发射日期:
1975-04-22 UTC
国别 :
俄罗斯(独联体) (CIS)
星等 :
--
轨道信息
数据来源 国际轨道数据 AOE轨道数据
星历时间 2025-10-31T06:56:56+0800
8小时前
查看轨道信息
2025-10-31T06:00:00+0800
9小时前
查看轨道信息
半长轴 7364.749km 7364.749km
偏心率 0.0024444 0.0024577
轨道倾角 82.960° 82.960°
近地点辐角 82.375° 82.583°
升交点赤经 299.221° 299.250°
平近点角 339.310° 143.696°
近地点 968.611km 968.513km
远地点 1004.617km 1004.715km
周期 104.833分钟 104.833分钟
每日圈数 13.736177 13.736177
详细信息
使用方式:
暂无
2D轨道图
3D轨道图
轨道高度分析图
轨道倾角分析图
轨道综合分析图
查看轨道综合分析图